Flag for Netherlands Weather past 2 weeks in Leerdam, Netherlands

Now
72 °F

Passing clouds.


Feels Like: 75 °F
Forecast: 57 / 76 °F
Wind: 3 mph from East

Location: De Bilt

Current Time: Sep 17, 2014 at 1:34:31 PM

Latest Report: Sep 17, 2014 at 12:00 PM


Visibility: 10 mi

Pressure: 29.91 "Hg

Humidity: 68%

Dew point: 61 °F

Location of LeerdamLocation

Historic Weather in Leerdam — Graph

°F

Leerdam temperature yesterday

Maximum temperature yesterday: 75 °F (at 3:00 PM)
Minimum temperature yesterday: 53 °F (at 6:00 AM)
Average temperature yesterday: 64 °F

Past Weeks' High & Low Weather Summary

 TemperatureHumidityPressure
High75 °F (Sep 16, 3:00 PM)100% (Sep 2, 11:00 PM)30.29 "Hg (Sep 2, 11:00 PM)
Low46 °F (Sep 8, 7:00 AM)53% (Sep 8, 3:00 PM)29.90 "Hg (Sep 6, 6:00 AM)
Average61 °F85%30.10 "Hg
* Reported Sep 2 12:00 Noon — Sep 17 12:00 Noon, Leerdam, Weather by CustomWeather, © 2014

Note: Actual official high and low records may vary slightly from our data, if they occured in-between our weather recording intervals... More about our weather records

Advertising

Leerdam weather history for previous 24 hours

 ConditionsComfort  
Time TempWeatherWind HumidityBarometerVisibility
12:00 PM
Sep 17
72 °FPassing clouds.3 mph68%29.91 "Hg10 mi
11:00 AM69 °FSunny.3 mph76%29.93 "Hg7 mi
10:00 AM65 °FFog.3 mph83%29.93 "Hg5 mi
9:00 AM60 °FFog.2 mph96%29.92 "Hg3 mi
8:00 AM56 °FFog.2 mph100%29.92 "Hg2 mi
7:00 AM54 °FClear.1 mph100%29.93 "Hg1 mi
6:00 AM53 °FClear.1 mph100%29.92 "Hg1 mi
5:00 AM53 °FClear.1 mph100%29.93 "Hg0 mi
4:00 AM53 °FClear.1 mph100%29.93 "Hg0 mi
3:00 AM54 °FClear.2 mph100%29.93 "Hg1 mi
2:00 AM55 °FPassing clouds.1 mph100%29.94 "Hg0 mi
1:00 AM56 °FClear.1 mph100%29.94 "Hg0 mi
12:00 AM58 °FFog.1 mph100%29.95 "Hg1 mi
11:00 PM
Sep 16
58 °FFog.1 mph100%29.95 "Hg4 mi
10:00 PM61 °FFog.1 mph99%29.95 "Hg3 mi
9:00 PM62 °FFog.No wind98%29.95 "Hg4 mi
8:00 PM65 °FFog.No wind91%29.94 "Hg5 mi
7:00 PM70 °FPassing clouds.1 mph78%29.94 "Hg11 mi
6:00 PM74 °FOvercast.3 mph63%29.94 "Hg16 mi
5:00 PM73 °FOvercast.2 mph65%29.94 "Hg11 mi
4:00 PM75 °FOvercast.3 mph61%29.95 "Hg12 mi
3:00 PM75 °FPartly sunny.1 mph63%29.96 "Hg11 mi
2:00 PM74 °FPartly sunny.1 mph63%29.98 "Hg11 mi
1:00 PM73 °FScattered clouds.2 mph65%29.98 "Hg10 mi
Weather by CustomWeather, © 2014

See weather overviewHow to use our weather pages